CAPE
0 0 0 0 0 0 0 0 1 3 2 5 12 10 13 18 22 22 23 18 20 21
0 0 0 0 0 0 0 0 0 0 3 7 10 7 13 18 18 23 19 20 23 21
0 0 0 0 0 0 0 0 0 0 1 8 11 9 14 19 19 18 15 17 17 16
0 0 0 0 0 0 0 0 0 0 1 8 10 8 15 20 15 15 18 13 13 15
0 0 0 0 0 0 0 0 0 0 2 5 9 12 20 13 14 20 19 14 17 9
0 0 0 0 0 0 0 0 0 0 1 4 17 8 13 15 16 15 15 11 10 2
0 0 0 0 0 0 0 0 0 1 1 3 6 7 13 15 19 15 13 15 7 0
0 0 0 0 0 0 0 0 0 0 0 1 4 7 16 13 17 21 17 15 5 1
0 0 0 0 0 0 0 0 0 0 0 0 0 10 8 15 15 12 16 11 5 3
0 0 0 0 0 0 0 0 0 0 0 0 1 8 2 3 12 18 17 10 3 1
0 0 0 0 0 0 0 0 0 0 0 0 0 8 2 0 3 11 11 17 5 4
0 0 0 0 0 0 0 0 0 0 0 0 0 8 4 0 0 1 5 7 9 4
0 0 0 0 0 0 0 0 0 0 0 0 0 0 1 0 0 0 3 2 7 14
0 0 0 0 0 0 0 0 0 0 0 0 0 0 0 0 0 0 2 10 10 4
CIN
0 0 0 0 0 0 0 0 0 0 0 0 0 0 0 0 0 0 0 0 0 0
0 0 0 0 0 0 0 0 0 0 0 0 0 0 0 0 0 0 0 0 0 0
0 0 0 0 0 0 0 0 0 0 0 0 0 0 0 0 0 0 0 0 0 0
0 0 0 0 0 0 0 0 0 0 0 0 0 0 0 0 0 0 0 0 0 0
0 0 0 0 0 0 0 0 0 0 0 0 0 0 0 0 0 0 0 0 0 0
0 0 0 0 0 0 0 0 0 0 0 0 0 0 0 0 0 0 0 0 0 0
0 0 0 0 0 0 0 0 0 0 0 0 0 0 0 0 0 0 0 0 0 0
0 0 0 0 0 0 0 0 0 0 0 0 0 0 0 0 0 0 0 0 0 0
0 0 0 0 0 0 0 0 0 0 0 0 0 0 0 0 0 0 0 0 0 0
0 0 0 0 0 0 0 0 0 0 0 0 0 0 0 0 0 0 0 0 0 0
0 0 0 0 0 0 0 0 0 0 0 0 0 0 0 0 0 0 0 0 0 0
0 0 0 0 0 0 0 0 0 0 0 0 0 0 0 0 0 0 0 0 0 0
0 0 0 0 0 0 0 0 0 0 0 0 0 0 0 0 0 0 0 0 0 0
0 0 0 0 0 0 0 0 0 0 0 0 0 0 0 0 0 0 0 0 0 0
Wind_Speed
7 7 7 9 9 9 9 10 13 12 13 14 15 14 13 10 10 11 10 13 11 9
7 8 7 10 10 9 10 10 12 13 13 15 16 16 15 10 12 12 11 12 11 10
7 7 8 9 12 13 12 12 13 14 14 16 16 16 16 13 12 14 11 9 12 11
6 8 8 9 12 12 12 13 14 14 15 16 17 16 15 15 15 16 13 13 12 11
7 8 9 10 13 13 13 14 14 14 15 16 17 17 16 17 17 16 15 15 14 13
8 9 9 11 13 13 13 14 14 15 16 17 18 18 16 17 17 16 15 14 14 14
8 8 9 11 13 13 13 14 15 15 15 18 18 18 17 18 17 16 15 15 14 15
7 8 9 11 12 12 13 13 14 15 16 18 17 15 18 18 17 17 17 16 15 16
7 9 10 11 12 13 14 14 15 17 17 19 14 29 28 22 15 17 16 16 16 16
7 9 10 11 12 14 14 14 16 17 17 18 21 31 29 25 14 15 18 20 17 16
7 9 10 11 12 13 13 14 14 16 18 17 17 31 31 24 17 15 19 21 21 20
7 9 9 11 12 11 12 13 14 14 18 19 19 32 31 21 16 17 19 18 22 22
7 8 9 9 10 10 10 12 11 14 16 20 19 30 32 25 14 18 14 18 20 34
7 8 8 8 9 9 10 11 13 14 15 17 19 21 30 32 16 13 13 14 14 15
Wind_Direction
16 15 8 356 351 348 343 336 336 339 338 341 345 335 337 325 322 318 309 300 291 281
18 13 3 358 354 349 344 340 343 344 344 346 348 344 338 330 325 322 314 309 299 292
15 8 2 356 354 352 349 348 349 351 348 351 349 344 341 337 330 329 324 316 308 304
11 7 2 357 356 355 350 351 354 353 350 351 349 345 345 345 340 337 333 331 325 327
12 5 4 1 2 359 356 356 354 353 353 354 351 350 351 348 346 344 343 340 340 346
16 10 8 5 3 2 1 358 359 360 356 356 354 357 356 350 347 348 352 349 349 0
19 15 12 7 6 7 4 1 3 4 357 360 0 2 358 353 351 352 357 1 6 13
25 24 15 13 13 10 10 6 5 7 4 4 9 3 3 357 356 358 7 12 11 22
31 28 19 17 16 15 13 11 11 14 8 7 9 6 8 5 2 4 10 17 23 22
35 31 24 21 19 18 13 10 15 15 12 12 14 10 10 11 8 14 20 22 23 27
40 36 29 25 26 20 15 16 16 16 14 13 13 10 14 12 18 19 25 26 24 28
41 41 33 28 25 22 17 20 19 21 18 15 17 12 17 14 21 26 26 29 30 30
50 49 43 29 26 24 25 25 24 26 24 22 17 20 18 20 19 29 29 30 29 31
61 55 46 41 29 27 31 30 31 34 29 25 24 19 20 26 26 27 28 30 26 27